Regional Weather Roundup
Issued by NWS State College, PA

Home | Current Version | Previous Version | Text Only | Print | Product List | Glossary On
Versions: 1 2 3 4 5 6 7 8 9 10 11 12 13 14 15 16 17 18 19 20 21 22 23 24 25 26 27 28 29 30 31 32 33 34 35 36 37 38 39 40 41 42 43 44 45 46 47 48 49 50
000
ASUS41 KCTP 250910
RWRCTP

REGIONAL WEATHER ROUNDUP
NATIONAL WEATHER SERVICE STATE COLLEGE PA
500 AM EDT FRI JUL 25 2014

Note: "fair" indicates few or no clouds below 12,000 feet with no
significant weather and/or obstructions to visibility.

* = STATION THAT DOES NOT REPORT PRECIPITATION /E.G. RAIN...SNOW...ETC/
    THUNDER OR FOG.

PAZ002>004-007>009-013>016-020>023-029>032-251000-
WESTERN PENNSYLVANIA

CITY           SKY/WX    TMP DP  RH WIND       PRES   REMARKS
ERIE           CLEAR     54  48  80 S6        30.05S
MEADVILLE      CLEAR     52  47  83 CALM      30.07S
FRANKLIN*      CLEAR     46  43  87 CALM      30.08S
NEW CASTLE     FOG       48  48 100 CALM      30.09R VSB<1/4
BEAVER COUNTY  NOT AVBL
BUTLER*        CLEAR     48  45  87 CALM      30.09R
PITTSBURGH INT CLEAR     54  50  86 CALM      30.06S
PITTSBURGH     CLEAR     56  48  74 N3        30.05S
INDIANA*       MOCLDY    50  50 100 CALM      30.11R
LATROBE        CLEAR     54  54 100 CALM      30.08R
WASHINGTON CO* CLEAR     48  45  87 CALM      30.07S
$$

PAZ004>006-010>012-017>019-024>028-033>037-041-042-045-046-049>053-251000-
CENTRAL PENNSYLVANIA

CITY           SKY/WX    TMP DP  RH WIND       PRES   REMARKS
BRADFORD       CLEAR     42  40  92 CALM      30.08R
DUBOIS         CLEAR     50  48  93 CALM      30.06S
CLEARFIELD     FOG       47  47 100 N3        30.07S VSB 1/4
JOHNSTOWN      CLEAR     51  48  89 CALM      30.07S
ALTOONA        CLEAR     51  50  96 CALM      30.07R
STATE COLLEGE  CLEAR     50  49  93 CALM      30.05R
WILLIAMSPORT   CLEAR     51  47  86 NW5       30.03S
SELINSGROVE    CLEAR     49  47  93 CALM      30.03S
FT INDIANTOWN  CLEAR     57  50  78 VRB2      30.02R
CAPITAL CITY   CLEAR     55  50  83 W6        30.02R
HARRISBURG     CLEAR     60  50  69 CALM      30.01R
YORK           CLEAR     52  50  93 CALM      30.02R
$$

PAZ038>040-043-044-047-048-054-055-060>062-067>071-251000-
EASTERN PENNSYLVANIA

CITY           SKY/WX    TMP DP  RH WIND       PRES   REMARKS
SCRANTON       CLEAR     51  47  86 CALM      30.02F
MOUNT POCONO   CLEAR     53  32  44 N9        30.02S
ALLENTOWN      CLEAR     56  49  77 W5        29.99S
QUAKERTOWN*    SUNNY     54  52  94 CALM      29.99S
READING        CLEAR     57  50  77 CALM      29.99S
LANCASTER      CLEAR     55  49  80 W5        30.00S
COATESVILLE    SUNNY     57  50  77 NW7       30.00S
POTTSTOWN      CLEAR     58  50  75 CALM      30.00R
BLUE BELL      CLEAR     55  54  94 CALM      29.97S
DOYLESTOWN     CLEAR     59  52  77 N7        29.97S
WILLOW GROVE   NOT AVBL
NORTH PHILA    PTCLDY    63  51  65 N7        29.98S
PHILADELPHIA   CLEAR     64  51  62 N7        29.97S
$$



USA.gov is the U.S. government's official web portal to all federal, state and local government web resources and services.